Overview Statistics Trail Chart Weather Telemetry Raw packets
 

This is the latest recevied weather packets stored in our database for station/object NO9B. If no packets are shown the sender has not sent any weather packets the latest 10 day(s).

<< 32 33 34 35 36 37 38 >>
Time Temp. Humidity Pressure Rain* Wind** Luminosity Snow
1788442378 24.44° C 82% 1016.3 hPa 0 mm - 19 W/m² -
1788442078 24.44° C 83% 1016.3 hPa 0 mm - 15 W/m² -
1788441774 24.44° C 88% 1016.1 hPa 0 mm - 10 W/m² -
1788441469 25° C 94% 1016 hPa 0 mm - 10 W/m² -
1788441168 25° C 97% 1015.9 hPa 0 mm - 11 W/m² -
1788440863 25° C 98% 1014.8 hPa 0 mm - 11 W/m² -
1788440558 25° C 98% 1014.5 hPa 0 mm - 15 W/m² -
1788440256 25° C 98% 1014.4 hPa 0 mm - 18 W/m² -
1788439951 25° C 98% 1014.4 hPa 0 mm - 26 W/m² -
1788439651 25° C 98% 1013.9 hPa 0 mm - 29 W/m² -
1788439346 25° C 98% 1014 hPa 0 mm - 36 W/m² -
1788439044 24.44° C 98% 1014.1 hPa 0 mm - 51 W/m² -
1788438743 24.44° C 98% 1014 hPa 0 mm - 33 W/m² -
1788438443 24.44° C 98% 1014.1 hPa 0 mm - 21 W/m² -
1788438138 23.89° C 98% 1014.1 hPa 0 mm - 23 W/m² -
1788437836 23.89° C 98% 1014.4 hPa 0 mm - 18 W/m² -
1788437533 23.89° C 98% 1014.4 hPa 0 mm - 12 W/m² -
1788437232 23.89° C 98% 1014.1 hPa 0 mm - 12 W/m² -
1788436926 23.33° C 98% 1014.4 hPa 0 mm - 11 W/m² -
1788436625 23.33° C 98% 1014.1 hPa 0 mm - 9 W/m² -
1788436320 23.33° C 98% 1014.3 hPa 0 mm - 7 W/m² -
1788436015 23.33° C 98% 1014.3 hPa 0 mm - 6 W/m² -
1788435710 23.33° C 98% 1014.3 hPa 0 mm - 5 W/m² -
1788435405 23.33° C 98% 1014.4 hPa 0 mm - 3 W/m² -
1788435101 23.33° C 98% 1014.4 hPa 0 mm - 2 W/m² -

* Rain latest hour (hover to see other rain measurements)
** Current wind speed in m/s (hover to see current wind gust speed)